Weather History for KTFP - February, 2012

Change the Weather History Date:

Saturday, February 25, 2012

  Actual Average Record
Temperature  
Mean Temperature 52 °F -  
Max Temperature 57 °F - - ()
Min Temperature 46 °F - - ()
Degree Days  
Heating Degree Days 14    
Growing Degree Days 2 (Base 50)    
Moisture  
Dew Point 42 °F    
Average Humidity 71    
Maximum Humidity 88    
Minimum Humidity 40    
Precipitation  
Precipitation 0.35 in - - ()
Sea Level Pressure  
Sea Level Pressure 30.35 in    
Wind  
Wind Speed 8 mph (NNE)    
Max Wind Speed 13 mph    
Max Gust Speed 17 mph    
Visibility 10 miles    
Events Rain    
T = Trace of Precipitation, MM = Missing Value Source: NWS Daily Summary

Daily Weather History Graph

Daily Weather History Graph

Search for Another Location

Airport or City:

Trip Planner

Search our weather history database for the weather conditions in past years. The results will help you decide how hot, cold, wet, or windy it might be!

Date:

Astronomy

Feb. 25, 2012 Rise Set
Actual Time 6:57 AM CST 6:26 PM CST
Civil Twilight 6:34 AM CST 6:50 PM CST
Nautical Twilight 6:06 AM CST 7:17 PM CST
Astronomical Twilight 5:39 AM CST 7:44 PM CST
Moon 8:47 AM CST (2/25) 10:00 PM CST (2/25)
Length of Visible Light 12h 15m
Length of Day
11h 28m
Waxing Crescent, 14% of the Moon is Illuminated
Feb 25
Waxing Crescent
Feb 29
First Quarter
Mar 8
Full
Mar 14
Last Quarter
Mar 22
New

Hourly Weather History & Observations

Time (CST) Temp. Dew Point Humidity Pressure Visibility Wind Dir Wind Speed Gust Speed Precip Events Conditions
12:35 AM 56.3 °F 32.0 °F 40% 30.34 in 10.0 mi North 9.2 mph - N/A   Mostly Cloudy
12:55 AM 55.9 °F 34.0 °F 44% 30.33 in 10.0 mi North 9.2 mph - N/A Rain Light Rain
1:15 AM 55.2 °F 36.5 °F 49% 30.33 in 10.0 mi North 10.4 mph - N/A   Scattered Clouds
1:35 AM 55.0 °F 36.7 °F 50% 30.34 in 10.0 mi North 9.2 mph - N/A   Scattered Clouds
1:55 AM 54.9 °F 37.2 °F 51% 30.35 in 10.0 mi North 10.4 mph - N/A Rain Light Rain
2:15 AM 54.1 °F 39.0 °F 57% 30.33 in 10.0 mi North 11.5 mph - N/A Rain Light Rain
3:15 AM 52.7 °F 38.1 °F 58% 30.33 in 10.0 mi North 10.4 mph - N/A   Mostly Cloudy
3:35 AM 53.2 °F 37.9 °F 56% 30.33 in 10.0 mi North 10.4 mph - N/A   Overcast
3:55 AM 54.0 °F 37.2 °F 53% 30.35 in 10.0 mi NNE 10.4 mph 16.1 mph N/A   Overcast
4:15 AM 54.9 °F 34.2 °F 46% 30.33 in 10.0 mi NNE 12.7 mph - N/A   Overcast
4:35 AM 52.9 °F 38.8 °F 59% 30.34 in 10.0 mi North 12.7 mph 17.3 mph N/A Rain Light Rain
4:55 AM 51.6 °F 40.1 °F 65% 30.36 in 10.0 mi North 12.7 mph - N/A Rain Light Rain
5:15 AM 51.4 °F 40.3 °F 66% 30.38 in 10.0 mi North 9.2 mph - N/A Rain Light Rain
6:15 AM 48.9 °F 42.8 °F 79% 30.40 in 10.0 mi NNE 10.4 mph - 0.02 in Rain Rain
6:35 AM 48.6 °F 42.8 °F 80% 30.42 in 10.0 mi North 6.9 mph - 0.07 in Rain Rain
6:55 AM 48.2 °F 43.7 °F 84% 30.43 in 10.0 mi NNW 6.9 mph - 0.10 in Rain Rain
7:15 AM 47.5 °F 44.1 °F 88% 30.43 in 10.0 mi North 8.1 mph - 0.03 in Rain Rain
7:35 AM 47.5 °F 43.7 °F 87% 30.44 in 10.0 mi North 5.8 mph - 0.06 in Rain Rain
7:55 AM 47.5 °F 43.9 °F 87% 30.45 in 7.0 mi NE 4.6 mph - 0.10 in Rain Rain
8:15 AM 47.3 °F 43.3 °F 86% 30.43 in 7.0 mi NE 6.9 mph - 0.03 in Rain Rain
8:35 AM 46.9 °F 42.3 °F 84% 30.45 in 10.0 mi Calm Calm - 0.05 in Rain Rain
8:55 AM 47.3 °F 42.1 °F 82% 30.45 in 7.0 mi Calm Calm - 0.08 in Rain Light Rain
9:15 AM 47.3 °F 42.1 °F 82% 30.43 in 10.0 mi NE 6.9 mph - 0.02 in Rain Rain
9:55 AM 47.1 °F 43.3 °F 87% 30.42 in 10.0 mi NNE 6.9 mph - 0.06 in Rain Rain
10:35 AM 48.2 °F 44.1 °F 86% 30.45 in 10.0 mi Calm Calm - 0.01 in Rain Rain
10:55 AM 48.6 °F 44.4 °F 86% 30.46 in 10.0 mi West 5.8 mph - 0.01 in   Overcast
11:15 AM 49.1 °F 44.1 °F 83% 30.45 in 5.0 mi Calm Calm - N/A   Haze
11:35 AM 49.3 °F 43.5 °F 81% 30.43 in 10.0 mi NNW 5.8 mph - N/A   Overcast
11:55 AM 50.0 °F 43.9 °F 79% 30.44 in 10.0 mi NW 3.5 mph - N/A   Overcast
12:35 PM 50.9 °F 43.9 °F 77% 30.42 in 10.0 mi NNW 5.8 mph - N/A   Overcast
12:55 PM 51.6 °F 43.0 °F 72% 30.41 in 10.0 mi NNW 4.6 mph - N/A   Overcast
1:15 PM 52.3 °F 42.6 °F 69% 30.40 in 10.0 mi NNE 3.5 mph - N/A   Overcast
1:35 PM 52.7 °F 42.1 °F 67% 30.38 in 10.0 mi ENE 5.8 mph - N/A   Overcast
1:55 PM 53.2 °F 41.5 °F 65% 30.38 in 10.0 mi ENE 5.8 mph - N/A   Overcast
2:15 PM 54.1 °F 42.1 °F 64% 30.37 in 10.0 mi NNE 4.6 mph - N/A   Overcast
2:35 PM 55.2 °F 42.8 °F 63% 30.36 in 10.0 mi NNE 8.1 mph - N/A   Overcast
2:55 PM 55.6 °F 43.9 °F 65% 30.35 in 10.0 mi North 9.2 mph - N/A   Overcast
3:15 PM 55.6 °F 42.8 °F 62% 30.33 in 10.0 mi NNE 6.9 mph - N/A   Overcast
3:35 PM 55.8 °F 43.3 °F 63% 30.33 in 10.0 mi North 6.9 mph - N/A   Overcast
4:15 PM 57.2 °F 44.1 °F 62% 30.31 in 10.0 mi North 8.1 mph - N/A   Mostly Cloudy
4:35 PM 57.0 °F 43.7 °F 61% 30.30 in 10.0 mi NNE 9.2 mph - N/A   Overcast
4:55 PM 56.7 °F 44.1 °F 63% 30.29 in 10.0 mi NE 8.1 mph - N/A   Overcast
5:15 PM 56.5 °F 43.7 °F 62% 30.29 in 10.0 mi ENE 5.8 mph - N/A   Mostly Cloudy
5:35 PM 56.3 °F 41.5 °F 58% 30.29 in 10.0 mi ENE 6.9 mph - N/A   Scattered Clouds
5:55 PM 55.8 °F 41.0 °F 58% 30.29 in 10.0 mi East 6.9 mph - N/A   Clear
6:15 PM 55.0 °F 41.9 °F 61% 30.29 in 10.0 mi ENE 8.1 mph - N/A   Clear
6:35 PM 53.6 °F 42.6 °F 66% 30.28 in 10.0 mi NE 6.9 mph - N/A   Clear
6:55 PM 52.2 °F 43.5 °F 72% 30.28 in 10.0 mi NE 4.6 mph - N/A   Clear
7:15 PM 50.9 °F 43.7 °F 76% 30.28 in 10.0 mi NE 4.6 mph - N/A   Clear
7:35 PM 50.5 °F 43.5 °F 77% 30.28 in 10.0 mi NE 5.8 mph - N/A   Clear
7:55 PM 50.2 °F 43.5 °F 78% 30.28 in 10.0 mi NE 4.6 mph - N/A   Clear
8:15 PM 50.7 °F 43.2 °F 75% 30.28 in 10.0 mi NE 3.5 mph - N/A   Clear
8:35 PM 50.4 °F 43.3 °F 77% 30.28 in 10.0 mi NE 3.5 mph - N/A   Scattered Clouds
8:55 PM 50.0 °F 43.5 °F 78% 30.28 in 10.0 mi ENE 3.5 mph - N/A   Scattered Clouds
9:15 PM 50.2 °F 43.7 °F 78% 30.28 in 10.0 mi Calm Calm - N/A   Mostly Cloudy
9:35 PM 49.5 °F 44.4 °F 83% 30.28 in 10.0 mi NE 4.6 mph - N/A   Mostly Cloudy
9:55 PM 48.6 °F 44.2 °F 85% 30.27 in 10.0 mi NNE 5.8 mph - N/A   Scattered Clouds
10:15 PM 48.4 °F 44.4 °F 86% 30.27 in 10.0 mi NNE 4.6 mph - N/A   Clear
10:35 PM 48.4 °F 44.8 °F 87% 30.27 in 10.0 mi NNE 6.9 mph - N/A   Clear
10:55 PM 48.6 °F 45.0 °F 87% 30.26 in 10.0 mi NNE 5.8 mph - N/A   Clear
11:15 PM 48.6 °F 45.0 °F 87% 30.25 in 10.0 mi NNE 5.8 mph - N/A   Clear
11:35 PM 48.6 °F 45.0 °F 87% 30.25 in 10.0 mi NNE 4.6 mph - N/A   Clear
11:55 PM 48.6 °F 45.1 °F 88% 30.25 in 10.0 mi NNE 4.6 mph - N/A   Clear